TimeCET,TemperatureF,Dew PointF,Humidity,Sea Level PressureIn,VisibilityMPH,Wind Direction,Wind SpeedMPH,Gust SpeedMPH,PrecipitationIn,Events,Conditions,WindDirDegrees,DateUTC
12:55 AM,57.2,48.2,72,29.77,6.2,ESE,11.5,-,N/A,,Mostly Cloudy,110,2012-10-30 23:55:00
1:00 AM,56,49,71,29.78,6,ESE,11.5,,,,Partly Cloudy,110,2012-10-31 00:00:00
1:55 AM,55.4,48.2,77,29.77,6.2,ESE,12.7,-,N/A,,Mostly Cloudy,120,2012-10-31 00:55:00
2:55 AM,55.4,46.4,72,29.74,6.2,ESE,13.8,-,N/A,,Mostly Cloudy,110,2012-10-31 01:55:00
3:55 AM,55.4,46.4,72,29.71,6.2,ESE,15.0,-,N/A,,Mostly Cloudy,110,2012-10-31 02:55:00
4:00 AM,56,47,63,29.73,6,ESE,15.0,,,,Overcast,110,2012-10-31 03:00:00
4:55 AM,57.2,50.0,77,29.71,5.0,East,13.8,-,N/A,Rain,Light Rain,100,2012-10-31 03:55:00
5:55 AM,57.2,50.0,77,29.68,5.0,East,15.0,-,N/A,Rain,Light Rain,90,2012-10-31 04:55:00
6:55 AM,57.2,51.8,82,29.68,3.7,East,15.0,-,N/A,Rain,Light Rain,90,2012-10-31 05:55:00
7:00 AM,56,53,85,29.68,4,East,15.0,,,Rain,Light Rain,90,2012-10-31 06:00:00
7:55 AM,57.2,51.8,82,29.65,3.7,East,13.8,-,N/A,Rain,Light Rain,90,2012-10-31 06:55:00
8:55 AM,57.2,51.8,82,29.62,4.3,East,16.1,-,N/A,Rain,Light Rain,100,2012-10-31 07:55:00
10:00 AM,58,52,73,29.61,5,ESE,20.7,,,Rain,Light Rain,110,2012-10-31 09:00:00
10:55 AM,59.0,53.6,82,29.56,5.0,ESE,24.2,-,N/A,Rain,Light Rain,120,2012-10-31 09:55:00
11:55 AM,57.2,53.6,88,29.53,4.3,ESE,21.9,-,N/A,Rain,Light Rain,110,2012-10-31 10:55:00
12:55 PM,57.2,53.6,88,29.50,3.1,ESE,27.6,-,N/A,Rain,Rain,110,2012-10-31 11:55:00
1:00 PM,57,54,86,29.52,3,ESE,27.6,,,Rain,Rain,110,2012-10-31 12:00:00
1:21 PM,57.2,53.6,88,29.47,1.9,ESE,25.3,39.1,N/A,Rain,Rain,110,2012-10-31 12:21:00
1:55 PM,57.2,53.6,88,29.44,1.9,ESE,26.5,-,N/A,Rain,Rain,110,2012-10-31 12:55:00
2:25 PM,57.2,53.6,88,29.44,1.2,ESE,24.2,-,N/A,Rain,Rain,120,2012-10-31 13:25:00
2:41 PM,57.2,53.6,88,29.44,1.9,ESE,23.0,-,N/A,Rain,Rain,120,2012-10-31 13:41:00
2:55 PM,57.2,53.6,88,29.44,2.5,ESE,20.7,-,N/A,Rain,Rain,120,2012-10-31 13:55:00
3:20 PM,57.2,53.6,88,29.42,1.9,ESE,23.0,-,N/A,Rain,Rain,110,2012-10-31 14:20:00
3:55 PM,57.2,53.6,88,29.42,2.5,ESE,23.0,-,N/A,Rain,Rain,110,2012-10-31 14:55:00
4:00 PM,57,53,84,29.42,2,ESE,23.0,,,Rain,Rain,110,2012-10-31 15:00:00
4:12 PM,57.2,53.6,88,29.39,0.9,ESE,21.9,-,N/A,Rain,Heavy Rain,110,2012-10-31 15:12:00
4:55 PM,57.2,53.6,88,29.39,2.5,SE,17.3,34.5,N/A,Rain,Heavy Rain,140,2012-10-31 15:55:00
5:07 PM,59.0,55.4,88,29.36,3.1,SE,19.6,-,N/A,Rain,Rain,130,2012-10-31 16:07:00
5:55 PM,62.6,57.2,82,29.36,1.2,SE,29.9,48.3,N/A,Rain,Heavy Rain,140,2012-10-31 16:55:00
6:14 PM,62.6,57.2,82,29.39,3.1,SSE,24.2,-,N/A,Rain,Rain,160,2012-10-31 17:14:00
6:55 PM,62.6,59.0,88,29.36,2.5,South,29.9,42.6,N/A,Rain,Rain,180,2012-10-31 17:55:00
7:00 PM,62,58,84,29.36,2,South,29.9,,,Rain,Rain,180,2012-10-31 18:00:00
7:55 PM,64.4,59.0,83,29.33,3.7,South,27.6,-,N/A,Rain,Light Rain,170,2012-10-31 18:55:00
8:55 PM,66.2,60.8,83,29.33,5.0,South,26.5,-,N/A,Rain,Light Rain,170,2012-10-31 19:55:00
9:55 PM,66.2,60.8,83,29.33,6.2,South,23.0,-,N/A,Rain,Light Rain,180,2012-10-31 20:55:00
10:00 PM,65,61,83,29.34,6,South,23.0,,,Rain,Light Rain,180,2012-10-31 21:00:00
10:55 PM,66.2,59.0,78,29.33,6.2,South,20.7,-,N/A,,Scattered Clouds,190,2012-10-31 21:55:00
11:55 PM,66.2,59.0,78,29.33,6.2,South,20.7,-,N/A,,Scattered Clouds,170,2012-10-31 22:55:00